User: anonymous   Login
Location: Oronoko Observatory
(41.9167°N, 86.3833°W)
Time: 19:16:18
(UTC-05:00)
Language:

PAYLOAD A - Orbit

View from above orbital plane
View from above orbital plane
View from above satellite
View from above satellite

Ground track
Ground track

The orbit data is extracted from the following two-line orbital elements,

1 27840U 03031A   17054.95631807 +.00000011 +00000-0 +16398-4 0  9997
2 27840 098.2020 057.3603 0099492 100.2691 260.9733 14.38875138716934
Epoch (UTC): 23 February 2017 22:57:05
Eccentricity: 0.0099492
inclination: 98.2020°
perigee height: 691 km
apogee height: 833 km
right ascension of ascending node: 57.3603°
argument of perigee: 100.2691°
revolutions per day: 14.38875138
mean anomaly at epoch: 260.9733°
orbit number at epoch: 71693

The dashed part of the orbit path shows where the satellite is in the earth's shadow,  

DLR